Regional Weather Roundup
Issued by NWS Wakefield, VA

Home | Current Version | Previous Version | Text Only | Print | Product List | Glossary Off
Versions: 1 2 3 4 5 6 7 8 9 10 11 12 13 14 15 16 17 18 19 20 21 22 23 24 25 26 27

000
ASUS41 KAKQ 232115
RWRAKQ

REGIONAL WEATHER ROUNDUP
NATIONAL WEATHER SERVICE WAKEFIELD VA
500 PM EDT SAT SEP 23 2017

Note: "fair" indicates few or no clouds below 12,000 feet with no
significant weather and/or obstructions to visibility. * = Denotes
station may not report precipitation (e.g., rain,snow,etc.),
thunder or fog.

VAZ042-051-052>054-056-232200-
NORTHERN VIRGINIA

CITY           SKY/WX    TMP DP  RH WIND       PRES   REMARKS
WASH NATIONAL  MOSUNNY   88  58  36 N8        30.05S
DULLES         MOSUNNY   86  60  41 N7        30.06S
FORT BELVOIR   SUNNY     87  63  43 NW9       30.04F
QUANTICO       SUNNY     85  65  51 CALM      30.06S
FREDERICKSBRG* SUNNY     85  64  48 CALM      30.05S
STAFFORD*      SUNNY     85  60  43 N3        30.10S
WARRENTON      SUNNY     86  54  33 NW5       30.07S
CULPEPER*      SUNNY     85  61  43 N5        30.08S
MANASSAS*      SUNNY     86  59  39 CALM      30.06S
LEESBURG*      SUNNY     86  64  48 W3        30.07F
WINCHESTER     SUNNY     82  55  39 CALM      30.08S HAZE
FRONT ROYAL*   CLEAR     82  55  39 E5        30.08S
LURAY*         CLEAR     86  46  25 NE6       30.09S
$$

VAZ048-049-060>072-079>083-232200-
CENTRAL AND SOUTH CENTRAL VIRGINIA

CITY           SKY/WX    TMP DP  RH WIND       PRES   REMARKS
RICHMOND       MOSUNNY   84  64  50 N6        30.04F
CHESTERFIELD*  NOT AVBL
PETERSBURG*    SUNNY     84  57  39 N5        30.05S
HANOVER        SUNNY     85  65  51 VRB5      30.06S
TAPPAHANNOCK*  SUNNY     84  53  33 N5        30.06S
QUINTON*       MOCLDY    81  67  62 CALM      30.04S
CHARLOTTSVILLE SUNNY     85  58  39 SE6       30.08S
GORDONSVILLE*  CLEAR     84  62  47 NE3       30.07S
ORANGE*        SUNNY     82  61  47 CALM      30.07S
LOUISA*        SUNNY     84  61  45 CALM      30.07S
BUMPASS*       FAIR      83  64  52 CALM      30.07S
FARMVILLE*     SUNNY     88  60  38 NE8       30.05S
CREWE*         FAIR      83  62  47 NE7       30.05S
FORT PICKETT*  FAIR      84  60  45 NE3       30.05F
CHASE CITY*    FAIR      84  56  38 N5        30.05S
CLARKSVILLE*   FAIR      86  55  35 E6        30.04S
SOUTH HILL*    SUNNY     84  60  44 N5        30.10S
LAWRENCEVILLE* FAIR      83  60  45 CALM      30.05R
EMPORIA*       SUNNY     82  61  47 N7        30.05S
$$

VAZ088>098-232200-
SOUTHEAST VIRGINIA

CITY           SKY/WX    TMP DP  RH WIND       PRES   REMARKS
NORFOLK        SUNNY     81  68  64 N8        30.03F
VIRGINIA BEACH MOSUNNY   80  65  59 NW9       30.02F
NORFOLK NAVAL  MOSUNNY   81  65  58 NE9       30.05S
WEST POINT*    MOSUNNY   84  64  51 N5        30.06R
SALUDA*        FAIR      81  70  69 CALM      30.04S
NEWPORT NEWS   SUNNY     81  67  62 NE7       30.04S
LANGLEY AFB    MOSUNNY   81  68  65 N3        30.03F
FORT EUSTIS    MOSUNNY   86  69  57 E3        30.01F
WILLIAMSBURG*  MOSUNNY   88  70  55 CALM      30.05R
HR EXEC AP*    FAIR      82  68  62 VRB5      30.04S
FRANKLIN*      MOSUNNY   84  65  52 N5        30.03S
US460-WAKEFLD  SUNNY     85  66  53 VRB5      30.04S
$$

VAZ020-022-025-037-045-232200-
WEST CENTRAL AND SOUTHWEST VIRGINIA

CITY           SKY/WX    TMP DP  RH WIND       PRES   REMARKS
STAUNTON*      SUNNY     84  51  32 NE5       30.12S
WAYNESBORO*    CLEAR     83  55  37 CALM      30.12S
HOT SPRINGS VA SUNNY     76  44  31 CALM      30.24S
LYNCHBURG      SUNNY     83  52  34 NE8       30.08F
DANVILLE       SUNNY     85  59  41 NE7       30.05S
SOUTH BOSTON*  FAIR      85  53  33 CALM      30.05S
MARTINSVILLE   SUNNY     84  58  41 E6        30.09S
ROANOKE        SUNNY     87  47  24 SE8       30.09S
BLACKSBURG     SUNNY     83  51  32 E9        30.16R
DUBLIN*        SUNNY     84  46  26 E9        30.13S
MARION*        SUNNY     81  45  27 E7        30.16S
HILLSVILLE*    SUNNY     80  47  30 E7        30.14S
RICHLANDS*     FAIR      83  47  27 NE13      30.14S
WISE*          SUNNY     82  55  39 N9        30.15F
ABINGDON*      MOSUNNY   88  54  31 E7        30.09S
$$

MDZ021>025-VAZ099-100-232200-
SOUTHERN MARYLAND AND THE DELMARVA PENINSULA

CITY           SKY/WX    TMP DP  RH WIND       PRES   REMARKS
PATUXENT RIVER MOSUNNY   84  63  49 N10G20    30.04F
BAY BRIDGE APT SUNNY     84  64  51 NW3       30.04S
LEONARDTOWN    SUNNY     81  63  54 CALM      30.06F
DOVER          SUNNY     85  73  67 NW10      30.02S
GEORGETOWN     SUNNY     86  63  45 N5        30.03S
EASTON         SUNNY     86  63  45 N7        30.07S
CAMBRIDGE      SUNNY     84  66  54 VRB5      30.03S
SALISBURY      SUNNY     84  67  56 NE6       30.02S
OCEAN CITY     SUNNY     79  68  69 E6        30.03S
WALLOPS ISLAND SUNNY     78  68  71 SE6       30.04S
ACCOMACK*      MOSUNNY   79  68  69 N5        30.04R
$$

NCZ012>017-030>032-232200-
NORTH CENTRAL AND EASTERN NORTH CAROLINA

CITY           SKY/WX    TMP DP  RH WIND       PRES   REMARKS
ROANOKE RAPIDS FAIR      84  63  48 CALM      30.03S
RALEIGH        MOSUNNY   86  57  37 E7        30.04F
ELIZABETH CITY SUNNY     82  69  64 NE9       30.03S
AHOSKIE*       SUNNY     83  63  50 N6        30.03S
EDENTON*       MOSUNNY   82  72  70 CALM      30.03R
CURRITUCK*     SUNNY     79  67  67 E7        30.04S
KILL DEVIL HLS SUNNY     74  63  66 CALM      30.02S
MANTEO         SUNNY     76  63  63 NE7       30.04S
CAPE HATTERAS  MOSUNNY   80  70  71 NE9       30.02S
TARBORO*       NOT AVBL
GOLDSBORO      SUNNY     85  65  51 NE9       30.01S
WASHINGTON     MOSUNNY   85  64  48 NE5       30.02S
GREENVILLE     SUNNY     86  63  45 NE8       30.04S
NEW BERN       MOSUNNY   84  66  54 NE9       30.02S
WILMINGTON     MOSUNNY   82  68  62 E8        30.00S
$$

VAZ048-232200-
ELSEWHERE

CITY           SKY/WX    TMP DP  RH WIND       PRES   REMARKS
HARRISBURG PA  MOSUNNY   86  55  34 N7        30.04F
BALTIMORE      MOSUNNY   87  55  33 NW9       30.03S
ANNAPOLIS      SUNNY     87  66  49 CALM      30.03S
ANDREWS AFB    SUNNY     84  61  45 N6        30.04F
PHILADELPHIA   MOSUNNY   88  57  34 N9        30.00F
HENDERSON NC   SUNNY     83  51  33 CALM      30.05S
GREENSBORO     MOSUNNY   84  60  44 E9        30.05F
ROCKY MOUNT    SUNNY     85  63  47 E6        30.03F
$$

VAZ100-232200-
MARINE

STATION/POSITION TIME  TEMP    WIND        PRES    WAVE   SWELL
                       AIR SEA DIR/SP/G            HT/PER HT/PER
                 (UTC) (F)     (DEG/KT/KT) (MB)    (FT/S) (FT/S)
BRANDYWINE LGT   2048   80     300/  9/  9 1016.7S
CAPE MAY NJ      2042   77 74  270/  4/  5 1015.9R
LEWES DE         2048   79 74  300/  5/  5 1016.4S
15NM E FENWICK I 2050   75 73  150/  2/  2 1017.2F   6/ 9   5/ 9
OCEAN-CITY-INLET 2048   78 75  100/  6/  8 1017.2F
WACHAPREAGUE VA  2048   75 80   80/  5/  7 1017.3R
THOMAS POINT MD  2100   81 76   60/  2/  3   N/A
GOOSES REEF MD   2100   80 77  360/  2/  4 1018.0
COVE POINT MD    2048   78     340/  8/  9 1017.9F
SOLOMONS ISLAND  2048   81 77   10/  7/  9 1016.8F
BISHOPS HEAD MD  2048   80 79  300/ 11/ 15 1017.1F
PINEY POINT MD   2048           40/  9/  9   N/A
POTOMAC MD       2100   81 77  360/ 10/ 14 1016.4    1
CAMBRIDGE MD     2048   85 78              1017.8F
LEWISETTA VA     2048   82 77   20/  6/ 10 1017.3F
RAPPAHANNOCK LGT 2048          340/ 10/ 11 1017.7S
STINGRAY PT      2100   78 77   40/  8/  8 1017.4    1/ 2
YORK RVR RNG VA  2036   77     320/  3/  6 1017.6S
YORKTOWN VA      2036   77 77   90/  5/  5 1016.9F
JAMESTOWN VA     2100      80   30/  6/ 12   N/A     0
DOMINION TERM VA 2036   78     140/  6/ 10 1017.2F
KIPTOPEKE VA     2048      76  320/ 10/ 12   N/A
CHES BAY BRIDGE  2036   77 77  360/ 11/ 12 1016.9F
CAPE HENRY VA    2036   76     320/  6/  7   N/A
WILLOUBY STN VA  2036   77      50/  8/  9 1017.2S
S CRANEY ISL VA  2036   79      40/  8/  9 1016.9F
CAPE HENRY BUOY  2100      77                N/A     4/13   3/13
1ST LANDING BUOY 2100   77 77              1016.9    2/ 4
64NM E OF VA BCH 2050   71 71  360/ 10/ 14 1017.0F  10/13  10/13
DUCK PIER NC     2036   74 77   10/  6/  9 1016.6S
44100 DUCK FRF   2035      75                N/A     5/10   3/12
44056 DUCK FRF   2100      76                N/A     5/10   3/13
OREGON INLET NC  2036   75 78   20/  8/ 11 1016.8R
HATTERAS NC      2036   77 78   30/  9/ 14 1016.5S
DIAMOND SHLS NC  2050   76 76   20/ 12/ 14 1016.2S   7/11   7/11
CAPE LOOKOUT NC  2100   77      80/ 10/ 10 1015.9F
$$




USA.gov is the U.S. government's official web portal to all federal, state and local government web resources and services.